User: anonymous   Login
Location: Escondida
(34.1015°N, 106.8964°W)
Time: 04:30:26
(UTC+00:00)
Language:

ESTCUBE 1 - Orbit

View from above orbital plane
View from above orbital plane
View from above satellite
View from above satellite

Ground track
Ground track

The orbit is defined by the following mean orbital elements,

1 39161U          26110.10232422 +.00000000 +00000-0 +14847-3 0 00006
2 39161  97.7345 166.3208 0007880 194.6740 165.4246 14.81221215    02
Epoch (UTC): 20 April 2026 02:27:20
Eccentricity: 0.0007880
inclination: 97.7345°
perigee height: 620 km
apogee height: 631 km
right ascension of ascending node: 166.3208°
argument of perigee: 194.6740°
revolutions per day: 14.81221215
mean anomaly at epoch: 165.4246°

The dashed part of the orbit path shows where the satellite is in the earth's shadow,  

DLR